{"data":{"norad_id":67210,"intl_designator":"2025-304U","name":"STARLINK-36173","alt_names":[],"object_type":"PAYLOAD","status":"ACTIVE","operator":null,"country":"US","launch_date":"2025-12-17","launch_site_code":"AFWTR","launch_vehicle":null,"mission":null,"orbit_class":"UNKNOWN","rcs_meters":null,"size_class":null,"mass_kg":null,"dimensions":null,"purposes":["comms"],"wikipedia_slug":null,"has_3d_model":false,"image_url":null,"decayed_at":null,"tle_current":{"epoch":"2026-05-24T23:45:36.694656Z","epoch_age_seconds":75970,"freshness":"FRESH","line1":"1 67210U 25304U   26144.99000804  .00001708  00000+0  15091-3 0  9991","line2":"2 67210  70.0019 342.0786 0002057 269.7715  90.3209 14.98337299 25315","mean_motion":14.98337299,"eccentricity":0.0002057,"inclination_deg":70.0019,"raan_deg":342.0786,"arg_perigee_deg":269.7715,"mean_anomaly_deg":90.3209,"bstar":0.00015091,"rev_number":2531,"period_min":96.106530950078,"perigee_km":570.60366944592,"apogee_km":573.46296951536,"semimajor_km":6950.1703194806,"source":"CELESTRAK","updated_at":"2026-05-25T13:38:21.512016Z"}}}